User: anonymous   Login
Location: Chiroubles
(46.1812°N, 4.6660°E)
Time: 11:42:33
(UTC+00:00)
Language:

CSL-04 Deb - Orbit

View from above orbital plane
View from above orbital plane
View from above satellite
View from above satellite

Ground track
Ground track

The orbit data is extracted from the following two-line orbital elements,

1 26270U 99057FG  21339.83491963  .00001604  00000-0  28591-3 0  9997
2 26270  98.2714  11.5510 0065919  10.7744 349.4854 14.67073507150177
Epoch (UTC): 05 December 2021 20:02:17
Eccentricity: 0.0065919
inclination: 98.2714°
perigee height: 624 km
apogee height: 717 km
right ascension of ascending node: 11.5510°
argument of perigee: 10.7744°
revolutions per day: 14.67073507
mean anomaly at epoch: 349.4854°
orbit number at epoch: 15017

The dashed part of the orbit path shows where the satellite is in the earth's shadow,  

DLR